F4IVW-13 Weather Reports


time (UTC)temp
F
wind
direction
speed
knots
gust
knots
rain 1hr
in
rain 24hr
in
rain mn
in
humidity
%
barometer
mb
20260507192402 58 0 0.0 0.0 0.00 0.00 0.73 99 1011.6
20260507191846 59 0 0.0 0.0 0.00 0.00 0.73 99 1011.6
20260507191329 60 0 0.0 0.0 0.00 0.00 0.73 99 1011.5
20260507190812 61 0 0.0 0.0 0.00 0.00 0.73 99 1011.5
20260507190255 62 0 0.0 0.0 0.00 0.00 0.73 99 1011.6
20260507185746 63 0 0.0 0.0 0.00 0.00 0.73 99 1011.5
20260507185221 64 0 0.0 0.0 0.00 0.00 0.73 99 1011.5
20260507184706 66 0 0.0 0.0 0.00 0.00 0.73 99 1011.5
20260507184145 68 0 0.0 0.0 0.00 0.00 0.73 99 1011.4
20260507183625 69 0 0.0 0.0 0.00 0.00 0.73 99 1011.4
20260507183108 70 0 0.0 0.0 0.00 0.00 0.73 99 1011.3
20260507182558 69 0 0.0 0.0 0.00 0.00 0.73 99 1011.3
20260507182032 70 0 0.0 0.0 0.00 0.00 0.73 99 1011.2
20260507181515 71 0 0.0 0.0 0.00 0.00 0.73 99 1011.2
20260507180958 72 0 0.0 0.0 0.00 0.00 0.73 99 1011.2
20260507180441 72 0 0.0 0.0 0.00 0.00 0.73 99 1011.1
20260507175922 72 0 0.0 0.0 0.00 0.00 0.73 99 1011.2
20260507175413 72 0 0.0 0.0 0.00 0.00 0.73 99 1011.3
20260507174847 71 0 0.0 0.0 0.00 0.00 0.73 99 1011.4
20260507174329 70 0 0.0 0.0 0.00 0.00 0.73 99 1011.5
20260507173815 69 0 0.0 0.0 0.00 0.00 0.73 99 1011.6
20260507173254 67 0 0.0 0.0 0.00 0.00 0.73 99 1011.6
20260507172743 67 0 0.0 0.0 0.00 0.00 0.73 99 1011.6
20260507172227 67 0 0.0 0.0 0.00 0.00 0.73 99 1011.6
20260507171701 67 0 0.0 0.0 0.00 0.00 0.73 99 1011.6
20260507171144 67 0 0.0 0.0 0.00 0.00 0.73 99 1011.6
20260507170627 67 0 0.0 0.0 0.00 0.00 0.73 99 1011.6
20260507170110 68 0 0.0 0.0 0.00 0.00 0.73 99 1011.6
20260507165553 68 0 0.0 0.0 0.00 0.00 0.73 99 1011.5
20260507165047 68 0 0.0 0.0 0.00 0.00 0.73 99 1011.6
20260507164516 68 0 0.0 0.0 0.73 0.00 0.73 99 1011.5
20260507163959 68 0 0.0 0.0 0.73 0.00 0.73 99 1011.5
20260507163442 68 0 0.0 0.0 0.73 0.00 0.73 99 1011.5
20260507162928 68 0 0.0 0.0 0.73 0.00 0.73 99 1011.5
20260507162411 68 0 0.0 0.0 0.73 0.00 0.73 99 1011.5
20260507161859 69 0 0.0 0.0 0.73 0.00 0.73 99 1011.6
20260507161336 71 0 0.0 0.0 0.73 0.00 0.73 99 1011.6
20260507160815 74 0 0.0 0.0 0.73 0.00 0.73 99 1011.5
20260507160258 76 0 0.9 1.7 0.73 0.00 0.73 99 1011.5
20260507154148 0 0 0.0 0.0 0.00 0.00 0.00
20260507152556 76 0 0.0 0.0 0.00 0.00 0.00 99 1011.3
20260507152040 75 0 0.0 0.0 0.00 0.00 0.00 99 1011.3
20260507151514 73 0 0.0 0.0 0.00 0.00 0.00 99 1011.2
20260507145402 74 0 0.0 0.0 0.00 0.00 0.00 99 1011.5
20260507144325 74 0 0.0 0.0 0.00 0.00 0.00 99 1011.6
20260507141136 72 0 0.0 0.0 0.00 0.00 0.00 99 1012.0
20260507140103 71 0 0.0 0.0 0.00 0.00 0.00 99 1012.1
20260507135039 73 0 0.0 0.0 0.00 0.00 0.00 99 1012.3
20260507134507 73 0 0.0 0.0 0.00 0.00 0.00 99 1012.3
20260507133949 72 0 0.0 0.0 0.00 0.00 0.00 99 1012.4
20260507133434 73 0 0.0 0.0 0.00 0.00 0.00 99 1012.5
20260507132913 73 0 0.0 0.0 0.00 0.00 0.00 99 1012.6
20260507125720 70 0 0.0 0.0 0.00 0.00 0.00 99 1013.0
20260507125218 70 0 0.0 0.0 0.00 0.00 0.00 99 1013.1
20260507124644 70 0 0.0 0.0 0.00 0.00 0.00 99 1013.1
20260507124136 70 0 0.0 0.0 0.00 0.00 0.00 99 1013.2
20260507124134 70 0 0.0 0.0 0.00 0.00 0.00 99 1013.2
20260507123615 70 0 0.0 0.0 0.00 0.00 0.00 99 1013.2
20260507122014 68 0 0.0 0.0 0.00 0.00 0.00 99 1013.4
20260507121502 67 0 0.0 0.0 0.00 0.00 0.00 99 1013.5
20260507120950 66 0 0.0 0.0 0.00 0.00 0.00 99 1013.5
20260507120422 67 0 0.0 0.0 0.00 0.00 0.00 99 1013.6
20260507115904 68 0 0.0 0.0 0.00 0.00 0.00 99 1013.6
20260507115343 68 0 0.0 0.0 0.00 0.00 0.00 99 1013.6
20260507114826 68 0 0.0 0.0 0.00 0.00 0.00 99 1013.7
20260507114308 67 0 0.0 0.0 0.00 0.00 0.00 99 1013.8
20260507113800 67 0 0.0 0.0 0.00 0.00 0.00 99 1013.8
20260507113235 67 0 0.0 0.0 0.00 0.00 0.00 99 1013.9
20260507112715 67 0 0.0 0.0 0.00 0.00 0.00 99 1013.9
20260507112159 67 0 0.0 0.0 0.00 0.00 0.00 99 1014.0
20260507111641 67 0 0.0 0.0 0.00 0.00 0.00 99 1014.2
20260507111127 67 0 0.0 0.0 0.00 0.00 0.00 99 1014.3
20260507110615 67 0 0.0 0.0 0.00 0.00 0.00 99 1014.4
20260507110049 68 0 0.0 0.0 0.00 0.00 0.00 99 1014.5
20260507105533 68 0 0.0 0.0 0.00 0.00 0.00 99 1014.5
20260507105018 68 0 0.0 0.0 0.00 0.00 0.00 99 1014.6
20260507104456 67 0 0.0 0.0 0.00 0.00 0.00 99 1014.6
20260507103939 67 0 0.0 0.0 0.00 0.00 0.00 99 1014.7
20260507103431 67 0 0.0 0.0 0.00 0.00 0.00 99 1014.6
20260507102905 67 0 0.0 0.0 0.00 0.00 0.00 99 1014.7
20260507102354 67 0 0.0 0.0 0.00 0.00 0.00 99 1014.8
20260507101831 68 0 0.0 0.0 0.00 0.00 0.00 99 1014.8
20260507101314 69 0 0.0 0.0 0.00 0.00 0.00 99 1014.9
20260507100756 68 0 0.0 0.0 0.00 0.00 0.00 99 1015.0
20260507100247 69 0 0.0 0.0 0.00 0.00 0.00 99 1015.1
20260507095718 69 0 0.0 0.0 0.00 0.00 0.00 99 1015.1
20260507095201 69 0 0.0 0.0 0.00 0.00 0.00 99 1015.1
20260507094641 69 0 0.0 0.0 0.00 0.00 0.00 99 1015.0
20260507094124 68 0 0.0 0.0 0.00 0.00 0.00 99 1015.1
20260507093607 68 0 0.0 0.0 0.00 0.00 0.00 99 1015.2
20260507093059 68 0 0.0 0.0 0.00 0.00 0.00 99 1015.2
20260507092533 65 0 0.0 0.0 0.00 0.00 0.00 99 1015.2
20260507092013 69 0 0.0 0.0 0.00 0.00 0.00 99 1015.2
20260507091456 70 0 0.0 0.0 0.00 0.00 0.00 99 1015.3
20260507090940 68 0 0.0 0.0 0.00 0.00 0.00 99 1015.2
20260507090422 67 0 0.0 0.0 0.00 0.00 0.00 99 1015.3
20260507085914 68 0 0.0 0.0 0.00 0.00 0.00 99 1015.3
20260507085346 67 0 0.0 0.0 0.00 0.00 0.00 99 1015.2
20260507084828 66 0 0.0 0.0 0.00 0.00 0.00 99 1015.2
20260507084309 67 0 0.0 0.0 0.00 0.00 0.00 99 1015.3
20260507083752 67 0 0.0 0.0 0.00 0.00 0.00 99 1015.4
20260507083235 66 0 0.0 0.0 0.00 0.00 0.00 99 1015.5
20260507082726 64 0 0.0 0.0 0.00 0.00 0.00 99 1015.5
20260507082158 62 0 0.0 0.0 0.00 0.00 0.00 99 1015.5
20260507081641 61 0 0.0 0.0 0.00 0.00 0.00 99 1015.6
20260507081124 59 0 0.0 0.0 0.00 0.00 0.00 99 1015.6
20260507080607 57 0 0.0 0.0 0.00 0.00 0.00 99 1015.6
20260507080050 56 0 0.0 0.0 0.00 0.00 0.00 99 1015.6
20260507075542 55 0 0.0 0.0 0.00 0.00 0.00 99 1015.6
20260507075014 54 0 0.0 0.0 0.00 0.00 0.00 99 1015.6
20260507074456 53 0 0.0 0.0 0.00 0.00 0.17 99 1015.5
20260507073938 53 0 0.0 0.0 0.00 0.00 0.17 99 1015.5
20260507073419 52 0 0.0 0.0 0.00 0.00 0.17 99 1015.6
20260507072900 53 0 0.0 0.0 0.00 0.00 0.17 99 1015.6
20260507072352 52 0 0.0 0.0 0.00 0.00 0.17 99 1015.7
20260507071826 50 0 0.0 0.0 0.00 0.00 0.17 99 1015.6
20260507071309 48 0 0.0 0.0 0.00 0.00 0.17 99 1015.6
20260507070750 47 0 0.0 0.0 0.00 0.00 0.17 99 1015.6
20260507070233 47 0 0.0 0.0 0.00 0.00 0.17 99 1015.6
20260507065715 46 0 0.0 0.0 0.00 0.00 0.17 99 1015.7
20260507065207 45 0 0.0 0.0 0.00 0.00 0.17 99 1015.7
20260507064641 45 0 0.0 0.0 0.00 0.00 0.17 99 1015.7
20260507064123 44 0 0.0 0.0 0.00 0.00 0.17 99 1015.7
20260507063606 43 0 0.0 0.0 0.00 0.00 0.17 99 1015.7
20260507063047 43 0 0.0 0.0 0.00 0.00 0.17 99 1015.7
20260507062530 43 0 0.0 0.0 0.00 0.00 0.17 99 1015.6
20260507062021 43 0 0.0 0.0 0.00 0.00 0.17 99 1015.7
20260507061455 42 0 0.0 0.0 0.00 0.00 0.17 99 1015.7
20260507060938 42 0 0.0 0.0 0.00 0.00 0.17 99 1015.8
20260507060422 42 0 0.0 0.0 0.00 0.00 0.17 99 1015.8
20260507055904 41 0 0.0 0.0 0.00 0.00 0.17 99 1015.7
20260507055347 40 0 0.0 0.0 0.00 0.00 0.17 99 1015.7
20260507054836 40 0 0.0 0.0 0.00 0.00 0.17 99 1015.6
20260507054310 40 0 0.0 0.0 0.00 0.00 0.17 99 1015.6
20260507053753 40 0 0.0 0.0 0.00 0.00 0.17 99 1015.5
20260507053238 39 0 0.0 0.0 0.00 0.00 0.17 99 1015.4
20260507052719 39 0 0.0 0.0 0.00 0.00 0.17 99 1015.4
20260507052202 39 0 0.0 0.0 0.00 0.00 0.17 99 1015.3
20260507051651 39 0 0.0 0.0 0.00 0.00 0.17 99 1015.4
20260507050051 38 0 0.0 0.0 0.00 0.00 0.17 99 1015.2
20260507045534 38 0 0.0 0.0 0.00 0.00 0.17 99 1015.2
20260507045017 38 0 0.0 0.0 0.00 0.00 0.17 99 1015.2
20260507044508 38 0 0.0 0.0 0.00 0.00 0.17 99 1015.2
20260507043943 39 0 0.0 0.0 0.00 0.00 0.17 99 1015.1
20260507042907 39 0 0.0 0.0 0.00 0.00 0.17 99 1015.2
20260507042350 38 0 0.0 0.0 0.00 0.00 0.17 99 1015.3
20260507041833 38 0 0.0 0.0 0.00 0.00 0.17 99 1015.3
20260507041324 38 0 0.0 0.0 0.00 0.00 0.17 99 1015.3
20260507040758 38 0 0.0 0.0 0.00 0.00 0.17 99 1015.2
20260507040241 38 0 0.0 0.0 0.00 0.00 0.17 99 1015.2
20260507035724 38 0 0.0 0.0 0.00 0.00 0.17 99 1015.3
20260507035208 38 0 0.0 0.0 0.00 0.00 0.17 99 1015.3
20260507034650 38 0 0.0 0.0 0.00 0.00 0.17 99 1015.2
20260507034142 38 0 0.0 0.0 0.00 0.00 0.17 99 1015.3
20260507033616 38 0 0.0 0.0 0.00 0.00 0.17 99 1015.3
20260507033059 38 0 0.0 0.0 0.00 0.00 0.17 99 1015.3
20260507032542 38 0 0.0 0.0 0.00 0.00 0.17 99 1015.3
20260507032025 38 0 0.0 0.0 0.00 0.00 0.17 99 1015.3
20260507031508 39 0 0.0 0.0 0.00 0.00 0.17 99 1015.3
20260507030957 39 0 0.0 0.0 0.00 0.00 0.17 99 1015.4
20260507030431 39 0 0.0 0.0 0.00 0.00 0.17 99 1015.4
20260507025914 39 0 0.0 0.0 0.00 0.00 0.17 99 1015.4
20260507025358 40 0 0.0 0.0 0.00 0.00 0.17 99 1015.4
20260507024840 40 0 0.0 0.0 0.00 0.00 0.17 99 1015.3
20260507024323 40 0 0.0 0.0 0.00 0.00 0.17 99 1015.4
20260507023814 40 0 0.0 0.0 0.00 0.00 0.17 99 1015.4
20260507023249 40 0 0.0 0.0 0.00 0.00 0.17 99 1015.4
20260507022732 40 0 0.0 0.0 0.00 0.00 0.17 99 1015.4
20260507022214 40 0 0.0 0.0 0.00 0.00 0.17 99 1015.4
20260507021658 40 0 0.0 0.0 0.00 0.00 0.17 99 1015.4
20260507021141 40 0 0.0 0.0 0.00 0.00 0.17 99 1015.4
20260507020630 40 0 0.0 0.0 0.00 0.00 0.17 99 1015.3
20260507015545 41 0 0.0 0.0 0.00 0.00 0.17 99 1015.2
20260507015028 41 0 0.0 0.0 0.00 0.00 0.17 99 1015.2
20260507014511 41 0 0.0 0.0 0.00 0.00 0.17 99 1015.2
20260507013953 41 0 0.0 0.0 0.00 0.00 0.17 99 1015.3
20260507013443 41 0 0.0 0.0 0.00 0.00 0.17 99 1015.4
20260507012917 41 0 0.0 0.0 0.00 0.00 0.17 99 1015.4
20260507012358 41 0 0.0 0.0 0.00 0.00 0.17 99 1015.4
20260507011841 41 0 0.0 0.0 0.00 0.00 0.17 99 1015.4
20260507011323 42 0 0.0 0.0 0.00 0.00 0.17 99 1015.4
20260507010806 42 0 0.0 0.0 0.00 0.00 0.17 99 1015.5
20260507010257 42 0 0.0 0.0 0.00 0.00 0.17 99 1015.5
20260507005732 42 0 0.0 0.0 0.00 0.00 0.17 99 1015.5
20260507005215 42 0 0.0 0.0 0.00 0.00 0.17 99 1015.6
20260507004658 42 0 0.0 0.0 0.00 0.00 0.17 99 1015.6
20260507004139 42 0 0.0 0.0 0.00 0.00 0.17 99 1015.8
20260507003620 42 0 0.0 0.0 0.00 0.00 0.17 99 1015.8
20260507003111 42 0 0.0 0.0 0.00 0.00 0.17 99 1015.9
20260507002546 42 0 0.0 0.0 0.00 0.00 0.17 99 1015.9
20260507002029 42 0 0.0 0.0 0.00 0.00 0.17 99 1015.9
20260507001511 42 0 0.0 0.0 0.00 0.00 0.17 99 1015.9
20260507000954 42 0 0.0 0.0 0.00 0.00 0.17 99 1015.9
20260507000437 43 0 0.0 0.0 0.00 0.00 0.17 99 1015.9
20260506235928 43 0 0.0 0.0 0.00 0.00 0.17 99 1016.0
20260506235403 43 0 0.0 0.0 0.00 0.00 0.17 99 1016.1
20260506234846 43 0 0.0 0.0 0.00 0.00 0.17 99 1016.0
20260506234327 43 0 0.0 0.0 0.00 0.00 0.17 99 1016.0
20260506233811 43 0 0.0 0.0 0.00 0.00 0.17 99 1016.0
20260506233251 44 0 0.0 0.0 0.00 0.00 0.17 99 1015.9
20260506232743 44 0 0.0 0.0 0.00 0.00 0.17 99 1015.9
20260506232218 44 0 0.0 0.0 0.00 0.00 0.17 99 1016.0
20260506231701 44 0 0.0 0.0 0.00 0.00 0.17 99 1016.1
20260506231143 44 0 0.0 0.0 0.00 0.00 0.17 99 1016.0
20260506230623 44 0 0.0 0.0 0.00 0.00 0.17 99 1016.1
20260506230106 44 0 0.0 0.0 0.00 0.00 0.17 99 1016.0
20260506225557 44 0 0.0 0.0 0.00 0.00 0.17 99 1016.0
20260506225032 44 0 0.0 0.0 0.00 0.00 0.17 99 1016.2
20260506224514 45 0 0.0 0.0 0.00 0.00 0.17 99 1016.0
20260506223957 45 0 0.0 0.0 0.00 0.00 0.17 99 1016.0
20260506223436 45 0 0.0 0.0 0.00 0.00 0.17 99 1016.0
20260506222919 46 0 0.0 0.0 0.00 0.00 0.17 99 1016.1
20260506222411 46 0 0.0 0.0 0.00 0.00 0.17 99 1016.1
20260506221843 46 0 0.0 0.0 0.00 0.00 0.17 99 1016.1
20260506221324 46 0 0.0 0.0 0.00 0.00 0.17 99 1016.1
20260506220807 47 0 0.0 0.0 0.00 0.00 0.17 99 1016.1
20260506220247 47 0 0.0 0.0 0.00 0.00 0.17 99 1016.1
20260506215730 46 0 0.0 0.0 0.00 0.00 0.17 99 1016.0
20260506215222 46 0 0.0 0.0 0.00 0.00 0.17 99 1016.1
20260506214656 47 0 0.0 0.0 0.00 0.00 0.17 99 1016.1
20260506214138 47 0 0.0 0.0 0.00 0.00 0.17 99 1016.1
20260506213621 47 0 0.0 0.0 0.00 0.00 0.17 99 1016.1
20260506213104 47 0 0.0 0.0 0.00 0.00 0.17 99 1016.1
20260506212547 47 0 0.0 0.0 0.00 0.00 0.17 99 1016.1
20260506212038 47 0 0.0 0.0 0.00 0.00 0.17 99 1016.2
20260506211511 47 0 0.0 0.0 0.00 0.00 0.17 99 1016.2
20260506210955 47 0 0.0 0.0 0.00 0.00 0.17 99 1016.2
20260506210437 47 0 0.0 0.0 0.00 0.00 0.17 99 1016.2
20260506205920 48 0 0.0 0.0 0.00 0.00 0.17 99 1016.2
20260506205403 48 0 0.0 0.0 0.00 0.00 0.17 99 1016.2
20260506204852 48 0 0.0 0.0 0.00 0.00 0.17 99 1016.2
20260506204326 48 0 0.0 0.0 0.00 0.00 0.17 99 1016.2
20260506203809 48 0 0.0 0.0 0.00 0.00 0.17 99 1016.1
20260506203252 48 0 0.0 0.0 0.00 0.00 0.17 99 1016.1
20260506202735 49 0 0.0 0.0 0.00 0.00 0.17 99 1016.0
20260506202215 49 0 0.0 0.0 0.00 0.00 0.17 99 1016.0
20260506201707 49 0 0.0 0.0 0.00 0.00 0.17 99 1015.9
20260506201141 49 0 0.0 0.0 0.00 0.00 0.17 99 1015.8
20260506200624 49 0 0.0 0.0 0.00 0.00 0.17 99 1015.7
20260506200107 49 0 0.0 0.0 0.00 0.00 0.17 99 1015.7
20260506195551 48 0 0.0 0.0 0.00 0.00 0.17 99 1015.6
20260506195034 49 0 0.0 0.0 0.00 0.00 0.17 99 1015.5
20260506194525 49 0 0.0 0.0 0.00 0.00 0.17 99 1015.4
20260506194002 50 0 0.0 0.0 0.00 0.00 0.17 99 1015.4
20260506193444 50 0 0.0 0.0 0.00 0.00 0.17 99 1015.4